[[{"header":{"parameterUnit":"m.s-1","parameterCategory":1,"la1":30.2991,"la2":30.254,"lo1":-89.0895,"lo2":-89.0444,"dy":0.0017,"dx":0.0017,"nx":28,"ny":28,"refTime":"2024-12-11T03:00:00:Z","depth":0,"parameterNumber":2,"parameterNumberName":"U-component_of_WINDS"},"data":[0,0,0,0,0,0,0,0,0,0,0,0,0,0,0,0,0,0,0,0,0,0,0,0,0,0,0,0,0,0,0,0,0,0,0,0,0,0,0,0,0,0,0,0,0,0,0,0,0,0,0,0,0,0,0,0,0,0,3.273,3.2731,0,3.2795,3.2796,3.2797,3.2787,3.2786,3.2784,3.2783,3.285,3.2853,3.2855,0,0,0,0,0,0,0,0,0,0,0,0,0,3.2599,3.2601,3.273,3.2731,3.2732,3.2795,3.2796,3.2797,3.2787,3.2785,3.2784,3.2783,3.2849,3.2852,3.2856,0,0,0,0,0,0,0,0,0,0,0,0,0,3.2659,3.2602,3.273,3.2735,3.2736,3.2795,3.2796,3.2797,3.2787,3.2785,3.2784,3.2782,3.2848,3.2852,3.2856,3.2915,0,0,3.2869,3.2871,0,0,0,0,0,0,0,0,3.2656,3.2664,3.2733,3.2734,3.2736,3.2781,3.2774,3.2837,3.2788,3.2768,3.2783,3.2781,3.2828,3.2834,3.285,3.2919,3.2921,3.2869,3.2872,3.2874,3.2875,0,0,0,0,0,0,0,3.2652,3.2661,3.2756,3.2734,3.2736,3.2734,3.274,3.2786,3.2807,3.2769,3.2769,3.2776,3.2829,3.2846,3.2851,3.2922,3.2869,3.2873,3.2876,3.2877,3.3045,3.3047,0,0,0,0,0,0,3.2646,3.2658,3.2754,3.2758,3.2691,3.2737,3.2745,3.2768,3.2806,3.281,3.2778,3.2776,3.284,3.2847,3.2854,3.2927,3.2874,3.2878,3.288,3.3043,3.3046,3.3048,0,0,0,0,0,0,3.2643,3.2655,3.2751,3.2708,3.272,3.2741,3.2768,3.277,3.2788,3.2813,3.2816,3.2791,3.2838,3.2848,3.2901,3.2929,3.288,3.2883,3.3041,3.3044,3.3047,3.3073,0,0,0,0,0,0,3.264,3.2654,3.2676,3.2708,3.2722,3.2797,3.2769,3.2773,3.2795,3.2793,3.2826,3.283,3.2838,3.2894,3.2905,3.2934,3.2887,3.3039,3.3042,3.3046,3.307,3.3076,3.3082,0,0,0,0,0,3.2635,3.268,3.2677,3.2689,3.2751,3.2798,3.2806,3.2814,3.2797,3.282,3.2837,3.2829,3.2924,3.29,3.2912,3.2942,3.3037,3.3041,3.3045,3.3067,3.3075,3.3082,0,0,0,0,0,0,3.265,3.2685,3.2681,3.2739,3.2766,3.2797,3.2826,3.2822,3.2855,3.2852,3.286,3.2868,3.2922,3.2937,3.2909,3.3003,3.2978,3.2985,3.299,3.2998,3.3005,3.3,3.289,0,0,0,0,0,3.2661,3.2696,3.2724,3.2772,3.2786,3.2804,3.2825,3.2829,3.2857,3.2868,3.2889,3.2917,3.2953,3.2977,3.3011,3.3072,3.308,3.3099,3.3105,3.311,3.3116,3.3151,3.316,3.3062,3.3062,3.3062,0,0,3.2682,3.2705,3.2727,3.2776,3.2797,3.2835,3.2813,3.2853,3.2882,3.2874,3.2926,3.2942,3.2974,3.3031,3.3058,3.3046,3.3145,3.3116,3.312,3.3123,3.3156,3.3166,3.3174,3.3065,3.3064,3.3064,0,0,3.2739,3.276,3.2803,3.2825,3.2858,3.287,3.2881,3.2913,3.2923,3.2975,3.2971,3.3005,3.3067,3.309,3.311,3.3179,3.3174,3.3191,3.3223,3.3257,3.3265,3.3272,3.3297,3.3306,3.3196,3.3196,3.3196,0,3.2762,3.2817,3.2825,3.2867,3.2889,3.2885,3.2929,3.2951,3.2993,3.3009,3.2996,3.3075,3.3096,3.316,3.3177,3.3193,3.3206,3.3186,3.3263,3.327,3.3276,3.3301,3.331,3.3198,3.3198,3.3198,3.3198,0,3.2844,3.2883,3.2913,3.2955,3.2981,3.3024,3.3039,3.3064,3.3067,3.308,3.3134,3.3159,3.32,3.3215,3.3218,3.328,3.3272,3.3261,3.3236,3.3287,3.3311,3.332,3.3201,3.32,3.32,3.3199,0,0,3.2911,3.2959,3.297,3.299,3.3027,3.3057,3.31,3.3141,3.3163,3.3193,3.323,3.3283,3.3274,3.3296,3.3302,3.3331,3.3386,3.3317,3.3318,3.3329,3.3458,3.3466,3.3477,3.3383,3.3385,3.3386,3.3455,0,3.2973,3.3049,3.3058,3.3126,3.3163,3.3161,3.3198,3.3226,3.324,3.3274,3.329,3.3328,3.3312,3.3326,3.3355,3.3373,3.3412,3.3368,3.3418,3.342,3.341,3.3489,3.3497,3.3561,3.3464,3.3466,3.3467,0,3.3055,3.3088,3.3159,3.3193,3.3209,3.3242,3.3281,3.3313,3.3345,3.3353,3.338,3.3382,3.3427,3.3401,3.3465,3.3435,3.3456,3.3468,3.3471,3.3476,3.3446,3.3496,3.3581,3.3591,3.3481,3.348,3.3479,0,3.3098,3.3161,3.3212,3.3229,3.3269,3.3293,3.3311,3.3341,3.3365,3.3399,3.3415,3.3454,3.3475,3.3505,3.3518,3.3498,3.3581,3.3556,3.359,3.359,3.3607,3.3606,3.3697,3.362,3.362,3.362,3.362,0,3.3166,3.321,3.3232,3.3263,3.3313,3.3324,3.3373,3.339,3.3417,3.3453,3.3454,3.3487,3.3502,3.3538,3.3548,3.36,3.3609,3.3618,3.362,3.3618,3.3617,3.3631,3.3627,3.3623,3.3622,3.3622,3.3621,0,3.3223,3.3239,3.3295,3.3329,3.3339,3.3374,3.3403,3.3434,3.3449,3.3494,3.3505,3.3528,3.3571,3.3587,3.3638,3.3645,3.3705,3.3704,3.3695,3.3695,3.3728,3.3725,3.3833,3.3848,3.3761,3.3762,3.3762,0,3.3265,3.3299,3.3337,3.3361,3.338,3.3418,3.3443,3.3456,3.3482,3.3522,3.3548,3.3591,3.3625,3.3694,3.3715,3.3755,3.3755,3.379,3.3761,3.3758,3.3756,3.3754,3.3758,3.3795,3.3796,3.3797,3.3797,0,3.3338,3.3345,3.3381,3.342,3.345,3.3482,3.3512,3.3532,3.355,3.3579,3.3623,3.365,3.3704,3.3746,3.3788,3.3807,3.3806,3.3806,3.3816,3.3814,3.3808,3.3813,3.371,3.3804,3.3803,3.3802,3.3802,3.3802,3.3389,3.342,3.3452,3.3492,3.3517,3.3546,3.3577,3.3596,3.3633,3.3678,3.3683,3.3731,3.3763,3.3819,3.384,3.3878,3.3868,3.3883,3.3886,3.389,3.3893,3.3802,3.3885,3.3885,3.3885,3.3885,3.3885,0,3.3464,3.3484,3.3522,3.3565,3.3597,3.3593,3.3628,3.3655,3.3696,3.3727,3.3761,3.3813,3.3854,3.388,3.3922,3.3948,3.3948,3.3958,3.3956,3.3961,3.3898,3.3885,3.3957,3.3957,3.3957,3.3957,3.3957,3.3957,3.3506,3.3558,3.3569,3.3633,3.3654,3.37,3.3721,3.3748,3.3772,3.3829,3.3864,3.3881,3.391,3.3955,3.3993,3.4,3.4016,3.4027,3.4032,3.3973,3.3965,3.3958,3.3946,3.403,3.403,3.4092,3.4093,3.4093]},{"header":{"parameterUnit":"m.s-1","parameterCategory":1,"la1":30.2991,"la2":30.254,"lo1":-89.0895,"lo2":-89.0444,"dy":0.0017,"dx":0.0017,"nx":28,"ny":28,"refTime":"2024-12-11T03:00:00:Z","depth":0,"parameterNumber":3,"parameterNumberName":"V-component_of_WINDS"},"data":[0,0,0,0,0,0,0,0,0,0,0,0,0,0,0,0,0,0,0,0,0,0,0,0,0,0,0,0,0,0,0,0,0,0,0,0,0,0,0,0,0,0,0,0,0,0,0,0,0,0,0,0,0,0,0,0,0,0,-6.1678,-6.1679,0,-6.1815,-6.1817,-6.1818,-6.179,-6.1788,-6.1785,-6.1783,-6.1922,-6.1928,-6.1934,0,0,0,0,0,0,0,0,0,0,0,0,0,-6.1391,-6.1396,-6.1678,-6.168,-6.1681,-6.1815,-6.1817,-6.1819,-6.1791,-6.1788,-6.1785,-6.1782,-6.192,-6.1927,-6.1935,0,0,0,0,0,0,0,0,0,0,0,0,0,-6.1521,-6.1398,-6.1677,-6.1683,-6.1685,-6.1815,-6.1817,-6.1819,-6.1792,-6.1788,-6.1784,-6.178,-6.1918,-6.1927,-6.1936,-6.2067,0,0,-6.1963,-6.1967,0,0,0,0,0,0,0,0,-6.1513,-6.1531,-6.1681,-6.1683,-6.1686,-6.1782,-6.1767,-6.1902,-6.1792,-6.1751,-6.1783,-6.1779,-6.1879,-6.1891,-6.1925,-6.2074,-6.208,-6.1964,-6.197,-6.1974,-6.1976,0,0,0,0,0,0,0,-6.1504,-6.1525,-6.1732,-6.1683,-6.1686,-6.1679,-6.1694,-6.1792,-6.1834,-6.1754,-6.1753,-6.177,-6.1879,-6.1916,-6.1928,-6.2082,-6.1964,-6.1972,-6.1978,-6.1981,-6.2348,-6.2352,0,0,0,0,0,0,-6.1493,-6.1518,-6.1728,-6.1736,-6.1589,-6.1687,-6.1703,-6.1755,-6.1833,-6.1842,-6.1773,-6.1768,-6.1902,-6.1917,-6.1933,-6.2093,-6.1974,-6.1982,-6.1987,-6.2343,-6.2349,-6.2353,0,0,0,0,0,0,-6.1487,-6.1512,-6.1722,-6.1627,-6.1653,-6.1696,-6.1754,-6.176,-6.1796,-6.1847,-6.1854,-6.1803,-6.19,-6.192,-6.2035,-6.2097,-6.1986,-6.1994,-6.2338,-6.2345,-6.2351,-6.2414,0,0,0,0,0,0,-6.1479,-6.151,-6.1561,-6.1628,-6.1658,-6.1822,-6.1758,-6.1765,-6.1812,-6.1807,-6.1877,-6.1885,-6.1899,-6.2021,-6.2044,-6.2108,-6.2002,-6.2333,-6.2341,-6.2349,-6.2407,-6.2422,-6.2435,0,0,0,0,0,-6.1469,-6.1572,-6.1563,-6.1589,-6.1722,-6.1826,-6.1843,-6.1857,-6.1817,-6.1869,-6.1901,-6.1883,-6.2087,-6.2033,-6.2058,-6.2126,-6.2329,-6.2339,-6.2348,-6.24,-6.2419,-6.2435,0,0,0,0,0,0,-6.151,-6.1581,-6.1572,-6.17,-6.1758,-6.1821,-6.1886,-6.1876,-6.1945,-6.1937,-6.1951,-6.1967,-6.2085,-6.2117,-6.2056,-6.2258,-6.2202,-6.2217,-6.2233,-6.2252,-6.2266,-6.2256,-6.2009,0,0,0,0,0,-6.1535,-6.1613,-6.1671,-6.1778,-6.1808,-6.1842,-6.1888,-6.1894,-6.1953,-6.1977,-6.2018,-6.2076,-6.2154,-6.2204,-6.2278,-6.2411,-6.2427,-6.247,-6.2485,-6.2496,-6.2509,-6.2584,-6.2604,-6.2385,-6.2385,-6.2385,0,0,-6.1585,-6.1634,-6.1682,-6.1788,-6.1833,-6.1914,-6.1862,-6.195,-6.2011,-6.199,-6.2102,-6.2134,-6.22,-6.2325,-6.2382,-6.2355,-6.2573,-6.2508,-6.2517,-6.2524,-6.2596,-6.2616,-6.2635,-6.2391,-6.239,-6.2389,0,0,-6.1719,-6.1763,-6.1858,-6.1905,-6.1974,-6.1997,-6.202,-6.2085,-6.2106,-6.2218,-6.2205,-6.2277,-6.241,-6.2458,-6.25,-6.2654,-6.264,-6.2677,-6.2752,-6.2824,-6.2841,-6.2857,-6.2913,-6.2933,-6.269,-6.269,-6.269,0,-6.1773,-6.1895,-6.1908,-6.1999,-6.2046,-6.2032,-6.2129,-6.2173,-6.2263,-6.2296,-6.2265,-6.2432,-6.2475,-6.2612,-6.265,-6.2684,-6.2711,-6.267,-6.2838,-6.2853,-6.2868,-6.2922,-6.2943,-6.2694,-6.2694,-6.2693,-6.2693,0,-6.1959,-6.2044,-6.2113,-6.2201,-6.2256,-6.2349,-6.2376,-6.2431,-6.2432,-6.2458,-6.2573,-6.2625,-6.271,-6.2742,-6.2744,-6.288,-6.2862,-6.2834,-6.2778,-6.2893,-6.2944,-6.2964,-6.27,-6.2699,-6.2698,-6.2697,0,0,-6.2122,-6.2218,-6.2243,-6.2283,-6.2359,-6.2425,-6.2518,-6.2602,-6.2649,-6.2711,-6.279,-6.2903,-6.2879,-6.2926,-6.2933,-6.2997,-6.3117,-6.2962,-6.2963,-6.299,-6.3272,-6.3293,-6.3317,-6.3108,-6.3112,-6.3115,-6.3267,0,-6.2264,-6.2428,-6.2444,-6.2591,-6.267,-6.2659,-6.274,-6.2795,-6.2822,-6.2894,-6.2923,-6.3004,-6.2965,-6.2994,-6.3056,-6.3089,-6.3174,-6.3079,-6.3182,-6.3186,-6.3167,-6.3343,-6.3366,-6.3506,-6.3287,-6.329,-6.3293,0,-6.2451,-6.2521,-6.2676,-6.2743,-6.2777,-6.2849,-6.2928,-6.2996,-6.3059,-6.3075,-6.3129,-6.3128,-6.3224,-6.3164,-6.3297,-6.3231,-6.3275,-6.3298,-6.3303,-6.3314,-6.3247,-6.336,-6.3551,-6.3573,-6.3324,-6.3321,-6.3319,0,-6.2556,-6.2688,-6.2799,-6.2834,-6.2914,-6.2966,-6.3001,-6.306,-6.3111,-6.3179,-6.3212,-6.3291,-6.3334,-6.3396,-6.3416,-6.337,-6.3549,-6.349,-6.3565,-6.3565,-6.3603,-6.3601,-6.3806,-6.363,-6.3629,-6.3629,-6.3629,0,-6.2714,-6.281,-6.2848,-6.2916,-6.3024,-6.304,-6.3146,-6.3179,-6.3233,-6.3307,-6.3301,-6.3372,-6.3394,-6.3468,-6.3485,-6.3593,-6.3613,-6.3628,-6.3632,-6.3629,-6.3628,-6.3658,-6.365,-6.3635,-6.3633,-6.3632,-6.3631,0,-6.2849,-6.2879,-6.2999,-6.3065,-6.3084,-6.3161,-6.3218,-6.3284,-6.331,-6.3405,-6.3428,-6.3469,-6.3556,-6.3583,-6.3687,-6.3698,-6.3826,-6.382,-6.3805,-6.3806,-6.3879,-6.3872,-6.4112,-6.4144,-6.3946,-6.3948,-6.3949,0,-6.2948,-6.3022,-6.3097,-6.3147,-6.3185,-6.3266,-6.3317,-6.3337,-6.3391,-6.3469,-6.3526,-6.3612,-6.3683,-6.3822,-6.3862,-6.3942,-6.3939,-6.4017,-6.3951,-6.3947,-6.3941,-6.3937,-6.3945,-6.403,-6.4032,-6.4033,-6.4035,0,-6.3121,-6.3133,-6.3207,-6.3288,-6.335,-6.3414,-6.3476,-6.3517,-6.3546,-6.3606,-6.3696,-6.3751,-6.3859,-6.3945,-6.4027,-6.4063,-6.4055,-6.4055,-6.4077,-6.4076,-6.4065,-6.4074,-6.384,-6.405,-6.4048,-6.4047,-6.4046,-6.4046,-6.3243,-6.3309,-6.3372,-6.3456,-6.3505,-6.3563,-6.3629,-6.3664,-6.3739,-6.3829,-6.3836,-6.3933,-6.3996,-6.4105,-6.4146,-6.4223,-6.42,-6.4231,-6.4239,-6.4247,-6.4254,-6.4052,-6.4237,-6.4237,-6.4237,-6.4236,-6.4236,0,-6.3417,-6.3457,-6.3534,-6.3622,-6.3688,-6.3674,-6.3742,-6.3799,-6.3885,-6.3944,-6.4014,-6.4118,-6.4202,-6.4248,-6.4332,-6.4384,-6.4383,-6.4406,-6.4403,-6.4412,-6.4268,-6.4242,-6.4406,-6.4406,-6.4406,-6.4406,-6.4406,-6.4406,-6.3515,-6.3626,-6.3645,-6.3781,-6.3821,-6.3917,-6.3957,-6.4011,-6.4059,-6.4175,-6.4246,-6.4275,-6.433,-6.4418,-6.4495,-6.4506,-6.4538,-6.4564,-6.4573,-6.4439,-6.4421,-6.4405,-6.438,-6.4571,-6.4571,-6.471,-6.4712,-6.4713]}]]